Preview of NWS' New Version of Forecast
This preview is not operational and should not be used for support decisions.

Regional Weather Roundup (RWR)

Issued by National Weather Service (NWS)

                            
000
ASUS42 KTBW 201818
RWRFL 
FLORIDA REGIONAL WEATHER ROUNDUP
NATIONAL WEATHER SERVICE TAMPA BAY RUSKIN FL
200 PM EDT FRI SEP 20 2019

NOTE: "FAIR" INDICATES FEW OR NO CLOUDS BELOW 12,000 FEET WITH NO
SIGNIFICANT WEATHER AND/OR OBSTRUCTIONS TO VISIBILITY.

FLZ001>010-012>015-112-114-115-201900-
PANHANDLE FLORIDA
  
CITY           SKY/WX    TMP DP  RH WIND       PRES   REMARKS
PENSACOLA      FAIR      88  65  46 SE15G21   30.15F                  
PENSACOLA NAS  FAIR      86  66  51 SE18G25   30.15F                  
MILTON NAS     FAIR      88  61  40 E12G20    30.16F                  
CRESTVIEW      FAIR      89  61  38 E9        30.17F                  
DUKE FIELD     FAIR      88  60  38 E14G20    30.15F                  
VALPARAISO     FAIR      86  63  46 SE13      30.15F                  
TRI COUNTY     FAIR      86  61  42 MISG      30.18F                  
PANAMA CITY    FAIR      86  63  45 E13G20    30.15F                  
TYNDALL AFB    PTSUNNY   85  67  54 E7        30.13F                  
APALACHICOLA   FAIR      84  67  56 E15G23    30.15F                  

STATION/POSITION SKY/WX   TEMP    WIND        PRES    WAVE   SWELL
                          AIR SEA DIR/SP/G            HT/PER HT/PER
                          (F)     (DEG/KT/KT) (MB)    (FT/S) (FT/S)
30.1N   87.6W              80 85   90/ 17/ 21 1021.0F   7/ 8
29.2N   88.2W              83     100/ 17/ 21 1019.6F   7/ 7
28.8N   86.0W                 85   80/ 19/ 25 1019.5F   6/ 7
PANAMA CITY BEAC           83 84   90/  7/ 14 1021.7
TOWER C                    78      70/ 20/ 23 1021.0F
28.5N   84.5W              81      70/ 19/ 23 1019.9F   6/ 6

$$
FLZ011-016>038-118-127-128-134-139-239-201900-
NORTH FLORIDA
  
CITY           SKY/WX    TMP DP  RH WIND       PRES   REMARKS
MARIANNA       PTSUNNY   84  63  49 E12G25    30.17F                  
TALLAHASSEE    PTSUNNY   87  64  46 NE12G22   30.16F                  
PERRY          PTSUNNY   85  67  53 E6        30.17S                  
LIVE OAK       MOSUNNY   86  64  48 E9G16     30.16F                  
CROSS CITY       N/A     87  67  51 E12G21    30.14F                  
LAKE CITY      FAIR      84  63  48 E9G18     30.17F                  
GAINESVILLE    FAIR      85  62  46 NE16G22   30.18F                  
WILLISTON      CLOUDY    83  67  57 E8        30.15S                  
PALATKA        CLOUDY    82  63  51 E14G23    30.17S                  
MAYPORT NAS    FAIR      86  64  47 E14       30.19F                  
JACKSONVILLE   FAIR      86  63  45 E16G24    30.19S                  
JAX NAS        FAIR      85  62  46 E15       30.19S                  
JAX CECIL      MOSUNNY   88  61  40 E8G22     30.18F                  
FERNANDINA BEA FAIR      85  65  50 E15       30.20S                  
ST AUGUSTINE   CLOUDY    82  50  33 NE9       30.19S                  
PALM COAST     MOSUNNY   84  66  54 E16G23    30.16F                  

STATION/POSITION SKY/WX   TEMP    WIND        PRES    WAVE   SWELL
                          AIR SEA DIR/SP/G            HT/PER HT/PER
                          (F)     (DEG/KT/KT) (MB)    (FT/S) (FT/S)
SHELL POINT      NOT AVBL
KEATON BEACH               83      50/ 11/ 14 1020.9F
CEDAR KEY                  82      90/ 17/ 19 1020.4F
FERNANDINA                 89 81   40/  4/ 12 1023.4F
30.7N   81.3W                 82                N/A     5/14   3/14
MAYPORT                    82 81   70/ 12/ 16 1023.0F
31.4N   80.9W              77 81   50/ 19/ 23 1022.4F   6/14   3/14
ST AUGUSTINE               82 82   80/ 17/ 19 1022.0F

$$
FLZ040-043>046-052-053-057-058-063-144-201900-
INTERIOR CENTRAL FLORIDA
  
CITY           SKY/WX    TMP DP  RH WIND       PRES   REMARKS
OCALA          CLOUDY    85  67  54 E16G24    30.14F                  
LEESBURG       PTSUNNY   82  67  60 E16G22    30.15S                  
SANFORD        PTSUNNY   80  70  71 E20G28    30.14F                  
ORLANDO EXEC   CLOUDY    80  71  74 N17       30.13S                  
ORLANDO INTL   FAIR      86  65  49 E20G26    30.11F                  
KISSIMMEE      PTSUNNY   86  67  52 E16G24    30.12S                  
WINTER HAVEN   CLOUDY    89  66  46 E17G24    30.11F                  
LAKELAND       PTSUNNY   84  66  54 E20       30.11S                  
BARTOW         MOSUNNY   86  66  51 E16G28    30.09F                  
SEBRING        CLOUDY    80  69  68 E13G20    30.09F                  
OKEECHOBEE     CLOUDY    77  70  78 NE14G21   30.08S                  

$$
FLZ041-047-054-059-064-141-147-201900-
EAST CENTRAL FLORIDA
  
CITY           SKY/WX    TMP DP  RH WIND       PRES   REMARKS
ORMOND BEACH   MOSUNNY   84  66  54 E14G21    30.16S                  
DAYTONA BEACH  PTSUNNY   81  68  64 E15G22    30.15F                  
DELAND         LGT RAIN  75  70  83 E12G21    30.16R                  
NEW SMYRNA BEA PTSUNNY   75  70  83 E9        30.17S                  
JFK SPACE CTR  MOSUNNY   84  70  61 E17G26    30.12F                  
TITUSVILLE     PTSUNNY   88  66  48 E17       30.13F                  
CAPE CANAVERAL FAIR      85  69  57 E18G29    30.11F                  
PATRICK AFB    FAIR      84  70  61 E23       30.11S                  
MELBOURNE      PTSUNNY   87  67  51 E20       30.10F                  
VERO BEACH     CLOUDY    86  68  54 NE21G32   30.09F                  
FT PIERCE      CLOUDY    84  68  58 E20G28    30.08S                  
STUART         PTSUNNY   84  70  61 E20G29    30.08F                  

STATION/POSITION SKY/WX   TEMP    WIND        PRES    WAVE   SWELL
                          AIR SEA DIR/SP/G            HT/PER HT/PER
                          (F)     (DEG/KT/KT) (MB)    (FT/S) (FT/S)
28.5N   80.2W              81 83   70/ 21/ 27 1020.3F  10/15   7/15
28.9N   78.5W              80 81   70/ 19/ 23 1021.0F  14/15  13/15
TRIDENT PIER               84 82   70/ 14/ 20 1021.7S
28.4N   80.5W                 82                N/A     6/14   3/14
27.5N   80.2W                 82                N/A     9/13   5/13

$$
FLZ050-056-061-142-242-148-248-149-249-151-251-155-255-
160-260-201900-
WEST CENTRAL FLORIDA
  
CITY           SKY/WX    TMP DP  RH WIND       PRES   REMARKS
CRYSTAL RIVER  CLOUDY    82  66  57 NE10      30.13S                  
INVERNESS      CLOUDY    82  70  65 E8        30.14S                  
BROOKSVILLE    PTSUNNY   85  65  51 E22G33    30.12S                  
CLEARWATER AIR FAIR      86  68  54 E10G21    30.08F                  
ST PETE CLEARW PTSUNNY   86  68  54 E15G22    30.08F                  
TAMPA INTL     PTSUNNY   86  68  54 NE13G20   30.09F                  
TAMPA EXEC     CLOUDY    86  72  62 E10G17    30.09F                  
PLANT CITY     CLOUDY    86  70  58 E15G22    30.11F                  
MACDILL AFB    PTSUNNY   85  69  58 E22G30    30.08S                  
PETER O KNIGHT CLOUDY    86  70  58 E15       30.09S                  
ST PETERSBURG  FAIR      84  71  65 E22       30.07F                  
SARASOTA       LGT RAIN  79  73  82 E16G31    30.06S                  
VENICE         FAIR      77  75  94 E18G25    30.07R                  

STATION/POSITION SKY/WX   TEMP    WIND        PRES    WAVE   SWELL
                          AIR SEA DIR/SP/G            HT/PER HT/PER
                          (F)     (DEG/KT/KT) (MB)    (FT/S) (FT/S)
27.3N   84.2W                 84                N/A     6/ 6
CLEARWATER BEACH           83 85   50/ 11/ 18 1019.1
MIDDLE TAMPA BAY           83      80/ 17/ 21 1018.5F
VENICE                     76 85   80/ 13/ 17 1018.0R

$$
FLZ066-069-070-075>078-162-262-165-265-201900-
SOUTHWEST FLORIDA AND KEYS
  
CITY           SKY/WX    TMP DP  RH WIND       PRES   REMARKS
PUNTA GORDA    PTSUNNY   82  75  79 NE13      30.07F                  
FT MYERS       PTSUNNY   87  71  58 NE16      30.01F                  
SOUTHWEST INTL PTSUNNY   83  71  67 E15G23    30.02F                  
NAPLES         PTSUNNY   86  74  67 E14G23    30.00F                  
MARCO ISLAND   FAIR      86  70  58 E15G23    30.01F                  
IMMOKALEE      FAIR      81  75  83 E8        30.00F                  
MARATHON       FAIR      89  72  56 E18G26    29.96F HX  96           
KEY WEST NAS   FAIR      90  73  57 E21G29    29.96F HX  98           
KEY WEST INTL  FAIR      88  72  58 E18G26    29.96F                  

STATION/POSITION SKY/WX   TEMP    WIND        PRES    WAVE   SWELL
                          AIR SEA DIR/SP/G            HT/PER HT/PER
                          (F)     (DEG/KT/KT) (MB)    (FT/S) (FT/S)
NAPLES                     80 84   60/  8/ 13 1016.4F
26.0N   85.6W              83 86   80/ 19/ 23 1016.5F   9/ 8
DRY TORTUGAS               83      90/ 21/ 22 1015.0F
SAND KEY                   84      80/ 22/ 27 1012.7
SOMBRERO KEY               84      70/ 19/ 24 1014.5
LONG KEY                   83                 1013.4

$$
FLZ067-068-071>074-168-172>174-201900-
SOUTHEAST FLORIDA 
  
CITY           SKY/WX    TMP DP  RH WIND       PRES   REMARKS
W PALM BEACH   PTSUNNY   84  69  60 E25G35    30.05F                  
BOCA RATON     MOSUNNY   86  72  62 E23G35    30.03F                  
FT LAUDER-EXEC FAIR      86  71  60 E29G37    30.01F                  
FT LAUDERDALE  PTSUNNY   85  72  65 E23G33    30.00F                  
POMPANO BEACH  FAIR      87  70  56 E23G33    30.02F                  
PEMBROKE PINES PTSUNNY   85  72  65 E26G35    30.02S                  
OPA LOCKA      PTSUNNY   84  73  69 E25G33    30.02R                  
MIAMI          LGT RAIN  80  72  76 NE20G28   30.01S                  
WEST KENDALL   RAIN      87  75  67 E23G33    29.98F HX  96           
HOMESTEAD      FAIR      86  75  69 E23G29    29.98F HX  95           

STATION/POSITION SKY/WX   TEMP    WIND        PRES    WAVE   SWELL
                          AIR SEA DIR/SP/G            HT/PER HT/PER
                          (F)     (DEG/KT/KT) (MB)    (FT/S) (FT/S)
PORT EVERGLADES            82      60/ 23/ 29 1016.4F
VIRGINIA KEY               83 85   50/ 19/ 26 1015.5
LAKE WORTH                 81 82   70/ 21/ 29 1018.5F
FOWEY ROCKS